CAPE
0 2 27 93 86 20 0 0 0 0 0 0 0 0 0 0 0 0 0 0 0 0 0 0 0 0 0 0 0 0 0 0 0 0 0 0 0 0 0 0 20 711 1231 1645 2960 3672 3733 3394 3319 3265 3248 3154 2695 2685 2588 2411 2440 2194 2179 2048 2100 2155 2010 1861 1678 1643 1790 1900 1847 1895 1850 1991 2122 2090 2072 2034 1968 1956 2151 2331 2275 2052 1822 1870 1778 1285
0 0 52 36 3 2 0 0 0 0 0 0 0 0 0 0 0 1 8 0 0 0 0 0 0 0 0 0 0 0 0 0 0 0 0 0 0 0 0 0 3 555 890 2103 3161 3516 3359 3179 3268 3347 3199 3180 2544 2703 2665 2515 2546 2434 2264 2129 2200 2090 2058 2041 1917 1993 2164 2151 2191 2157 1988 2022 2201 2229 2153 2144 2121 2186 2291 2656 2518 2258 2027 1914 1348 1055
38 26 38 10 14 8 0 0 0 0 0 0 0 0 0 0 0 4 0 0 0 0 0 0 0 0 0 0 0 0 0 0 0 0 0 0 0 0 0 0 1 75 870 2565 3223 3227 3166 3167 3145 2987 3015 2912 3010 2995 2918 2638 2602 2650 2458 2414 2362 2078 1984 2049 2252 2278 2270 2412 2432 2351 2228 2194 2272 2236 2271 2256 2219 2161 2346 2918 2734 2480 2210 1790 1452 1353
58 70 60 22 22 15 3 0 0 0 0 0 0 0 0 3 1 19 0 0 0 0 0 0 0 0 0 0 0 0 0 0 0 0 0 0 0 0 0 1 31 44 512 1987 3086 3244 3110 3181 3256 2946 2955 2896 3041 3257 3034 2682 2587 2648 2624 2726 2552 2284 2038 1967 1938 1902 2116 2028 2085 2308 2490 2308 2343 2388 2373 2448 2573 2498 2454 2916 2790 2531 2350 1995 1549 1482
29 51 36 35 38 32 79 25 8 43 104 1 0 2 5 9 1 0 23 0 0 0 0 0 0 0 0 0 0 0 0 0 0 0 0 0 0 0 0 0 1 93 254 1291 2475 3106 2876 3147 3020 3136 3058 3051 2935 3304 3324 3104 2746 2570 2676 2818 2746 2527 2242 2083 1969 1909 1886 1847 1866 2021 1992 2062 2386 2742 2773 2708 2732 2877 2821 2683 2673 2504 2442 2057 1571 1480
78 62 24 34 86 100 77 137 98 41 110 4 0 1 0 0 0 0 0 0 0 3 0 0 0 1 0 0 0 0 0 0 0 0 0 0 0 0 0 0 1 16 155 856 1374 2257 3018 2857 3041 3370 3279 3262 3308 3397 3802 3285 3073 2864 2873 2845 2746 2784 2747 2522 2240 1976 1981 1886 1900 1908 1995 1956 2389 2807 2919 2875 2886 3013 2890 2574 2542 2472 2458 2193 1996 1997
173 38 53 53 39 168 111 136 111 42 184 59 102 0 0 0 0 1 5 1 0 9 1 0 1 30 0 0 0 0 0 0 0 0 0 0 0 0 0 0 5 47 312 881 1924 2292 2568 2702 2817 2914 3061 2842 3037 3196 3477 3229 2587 2222 3258 3458 3248 3142 3054 2829 2541 2200 2077 2002 2065 2070 2098 2186 2586 2722 3004 3027 2948 3130 2949 2760 2836 2882 2823 2373 2373 2402
51 26 29 70 103 150 210 225 223 110 114 116 13 1 0 0 0 0 4 3 30 1 0 0 0 20 2 0 0 0 0 0 0 0 0 0 0 0 0 0 0 0 69 476 1390 2424 2529 2862 2734 3013 3224 3088 2918 3324 3128 2876 2280 1838 2545 3467 3459 3350 3187 3051 2642 2290 2150 2156 2145 2301 2301 2346 2620 2791 2990 3145 3347 3513 3256 3228 3418 3195 3069 2587 2428 2562
24 41 47 59 82 143 104 262 76 66 78 190 24 4 0 0 0 0 0 2 0 0 6 0 0 0 0 5 0 0 0 0 0 0 0 0 0 0 0 0 7 267 766 1038 1538 1975 2534 2629 2796 3017 3188 3114 3205 3248 3295 3072 2741 2413 2499 3117 3138 3029 3050 3032 2702 2375 2312 2215 2299 2426 2602 2707 2674 2839 2874 3467 3532 3600 3687 3832 3706 3465 3216 2738 2468 2462
129 94 57 79 55 300 145 45 32 50 118 124 22 3 0 0 0 0 0 2 0 0 14 3 0 0 0 0 0 0 0 0 0 0 0 2 0 0 0 0 0 0 95 632 1302 1586 2384 2684 2269 3239 3536 3401 3249 3385 3138 3098 2876 2615 2484 2467 2482 2649 2823 2682 2572 2513 2469 2370 2392 2483 2632 2912 3006 2804 2909 3573 3529 3488 3789 3980 4116 3859 3461 3027 2897 2824
18 32 0 95 222 42 58 43 47 35 33 32 21 6 5 0 3 0 9 4 4 0 3 0 0 0 1 0 0 0 6 3 9 4 2 0 0 0 0 0 0 0 40 270 434 735 1314 2490 2841 3102 2754 2948 3448 2988 3024 2950 2851 2582 2760 2859 2744 2670 2589 2456 2541 2652 2592 2576 2569 2685 2688 2971 3126 3183 3289 3681 3800 3822 4163 3844 4011 3906 3543 3383 3285 3141
86 19 177 43 1 74 40 103 60 7 29 47 97 121 64 17 1 0 3 0 0 2 2 0 0 0 6 0 0 0 0 0 0 0 0 0 0 0 0 0 0 0 0 22 320 701 1432 1879 1750 2341 2136 2012 2530 3052 2901 2832 3043 2414 2218 1965 2439 2961 2879 2819 2765 2776 2798 2760 2755 2761 2844 2844 3156 3429 3543 3811 3940 3931 4014 4033 3955 3888 3720 3565 3418 3422
239 192 30 9 17 9 26 52 186 64 84 116 152 156 70 80 11 2 8 0 0 21 7 0 0 0 0 10 0 0 0 0 0 0 0 0 0 0 0 0 0 0 0 0 0 431 606 862 1270 1955 2209 2330 1862 2013 2664 2740 2720 2232 2042 1853 1626 2398 2931 3025 2952 2884 3146 2984 2926 2961 2970 3083 3266 3553 3735 3910 3609 3852 3810 4063 4090 4028 3884 3750 3561 3490
118 0 32 50 47 38 102 238 314 240 239 229 242 235 144 77 1 4 2 0 3 0 0 0 0 0 2 0 0 0 0 0 0 0 0 0 0 0 0 0 0 0 0 0 0 0 156 862 1207 1301 1396 1318 1947 1916 1958 2298 2363 2276 2296 2080 1022 1322 2894 3270 3376 3287 3295 3205 3111 3115 3200 3292 3414 3584 3397 3643 3556 3683 3758 4027 3959 3782 3800 3867 3665 3457
171 40 1 87 192 12 78 76 50 58 89 111 49 20 157 104 10 0 0 1 5 6 0 0 0 0 0 0 0 0 0 0 0 0 0 0 0 0 0 0 0 0 0 0 0 0 0 64 368 868 1373 1417 1576 1509 1998 2290 2016 2275 2471 2376 1999 1714 2812 3140 3341 3347 3271 3248 3180 3254 3373 3380 3580 3569 3539 3521 3440 3942 3956 3740 3758 3674 3746 3848 3749 3500
0 28 3 0 16 42 83 46 10 41 65 51 42 11 24 96 0 18 1 1 1 2 1 0 2 0 1 0 0 0 0 0 0 0 0 0 0 0 0 0 0 0 0 0 0 0 0 0 0 202 545 1029 1105 1347 1599 1964 1920 1974 2167 1946 2176 2670 3283 3156 3010 3124 3259 3244 3202 3206 3308 3404 3509 3542 3470 3390 3332 3578 3786 3570 3619 3644 3600 3674 3786 3580
50 35 0 0 1 57 30 13 57 3 59 204 39 198 104 2 0 0 13 13 12 0 1 0 0 0 0 0 1 0 0 0 0 1 2 3 1 1 1 1 0 0 0 0 0 0 0 0 0 0 12 443 732 828 1006 1212 1708 1560 1419 1798 2122 2405 2530 3341 3325 3310 3220 3196 3256 3289 3282 3351 3424 3519 3527 3512 3457 3534 3348 3091 3241 3496 3445 3531 3585 3821
42 68 7 0 13 26 0 0 1 10 0 24 260 146 0 0 15 22 10 0 0 0 5 1 0 0 0 1 0 0 0 5 6 3 1 12 17 9 8 10 1 1 0 0 0 0 0 0 0 0 0 0 277 627 702 705 517 1097 1284 1376 916 1962 3145 3493 3521 3489 3361 3341 3364 3436 3340 3396 3493 3599 3761 3670 3638 3638 3391 3102 3084 3282 3524 3584 3826 3946
11 69 3 0 0 14 11 0 57 14 0 60 40 0 48 9 21 33 1 0 3 0 2 0 0 2 0 3 0 0 31 50 26 12 14 11 6 13 4 6 7 1 1 0 0 0 0 0 0 0 0 0 0 0 344 675 495 291 1332 1299 1751 1125 1820 2589 3891 3800 3670 3518 3496 3374 3434 3548 3599 3710 3889 3624 3458 3678 3556 3530 3447 3187 3166 3804 3782 3708
8 59 10 0 15 4 29 63 120 59 38 0 0 25 0 3 113 104 57 0 0 2 1 0 0 0 0 0 0 0 28 37 30 22 9 3 0 1 3 2 4 0 2 0 0 0 0 0 0 0 0 0 0 0 0 34 626 689 725 1353 1582 2030 2016 2015 2502 3219 3677 3558 3476 3466 3452 3600 3464 3492 3436 3670 3517 3803 3770 3816 3671 3548 3389 3622 3469 3531
3 6 63 4 11 13 32 7 201 112 202 218 225 100 30 42 1 3 6 2 0 33 0 4 0 0 0 0 0 0 4 13 14 17 14 7 0 0 0 0 0 0 0 0 0 0 0 0 0 0 0 0 0 0 0 0 0 412 904 1080 1153 2033 2038 2220 2324 2629 3188 3381 3176 3459 3607 3506 3397 3332 3545 3393 3387 3472 3764 3742 3633 3515 3306 3340 3245 3105
0 3 2 7 0 1 4 0 0 7 46 158 204 222 127 103 34 9 4 0 0 0 0 0 5 0 0 0 0 0 0 0 0 0 6 3 0 0 0 0 0 0 0 0 0 0 0 0 0 0 0 0 0 0 0 0 0 0 26 781 1408 1648 1860 2277 2411 2473 2772 3501 3339 3340 3382 3435 3378 3385 3343 3243 3523 3440 3758 3367 3579 3633 3454 3006 3250 2961
38 4 32 0 0 0 0 0 0 0 6 24 124 252 189 197 75 14 0 17 1 0 0 0 1 0 0 0 0 0 0 0 0 0 0 0 0 0 0 0 0 0 0 0 0 0 0 0 0 0 0 0 0 0 0 0 0 0 0 1 13 638 1501 1767 2566 2604 2894 3393 3413 3401 3437 3360 3206 3339 3316 3314 3342 3511 3492 3335 3553 3668 3610 3457 3423 3064
3 2 0 0 0 0 0 0 0 0 0 4 0 12 54 118 107 174 181 166 48 0 0 0 0 0 0 0 1 3 15 14 10 4 0 0 0 0 0 0 0 0 0 0 0 0 0 0 0 0 0 0 0 0 0 0 0 0 0 0 0 6 0 412 1640 2401 2939 3311 3363 3466 3475 3460 3473 3519 3456 3479 3501 3572 3665 3485 3379 3596 3617 3455 3460 3161
6 0 1 0 9 2 2 1 0 0 7 0 0 2 1 32 112 117 72 131 36 32 18 0 0 1 1 0 6 27 3 0 0 0 2 0 0 0 0 0 0 0 0 0 0 0 0 0 0 0 0 0 0 0 0 0 0 0 0 0 0 0 0 0 173 1529 2538 2842 3349 3496 3450 3530 3583 3626 3628 3626 3552 3626 3676 3601 3501 3574 3584 3496 3143 3219
15 1 5 1 18 8 5 4 3 4 1 2 4 1 0 3 0 61 18 14 40 15 15 7 2 20 23 1 14 0 0 0 0 0 0 1 1 0 0 0 0 0 0 0 0 0 0 0 0 0 0 0 0 0 0 0 0 0 0 0 0 0 0 0 0 124 1629 2640 2994 3225 3376 3468 3530 3534 3702 3682 3634 3725 3627 3465 3140 3604 3683 3322 3224 2944
0 3 0 1 3 8 4 2 0 5 1 0 1 1 2 1 2 0 0 3 15 3 3 11 20 52 5 4 2 0 1 5 6 0 0 0 0 1 1 2 0 0 0 0 0 0 0 0 0 0 0 0 0 0 0 0 0 0 0 0 0 0 0 0 0 0 184 1799 2734 3057 3186 3318 3358 3434 3578 3801 3755 3607 3540 3565 3457 3530 3467 3388 3225 3152
5 3 2 0 0 0 2 1 5 0 0 0 0 0 0 0 2 0 0 4 1 1 1 0 2 4 2 3 0 4 7 9 12 14 8 0 1 4 2 0 0 0 0 0 0 0 0 0 0 0 0 0 0 0 0 0 0 0 0 0 0 0 0 0 0 0 0 256 1861 2910 3054 3190 3291 3390 3417 3410 3476 3436 3475 3569 3612 3669 3289 3137 2789 3052
0 3 1 0 0 1 0 0 3 4 0 0 2 2 2 1 0 1 2 0 3 0 1 5 8 8 4 2 2 4 3 8 8 3 1 2 2 1 0 0 0 0 0 0 0 0 0 0 0 0 0 0 0 0 0 0 0 0 0 0 0 0 0 0 0 0 0 46 710 2289 3025 3107 3230 3381 3438 3449 3474 3461 3405 3460 3532 3484 3354 3225 3138 2951
34 4 0 3 0 1 0 0 2 0 2 0 1 1 1 1 0 1 0 1 0 0 0 1 6 10 4 1 2 0 1 3 6 4 2 1 2 3 1 1 0 1 0 1 0 0 0 0 0 0 0 0 0 0 0 0 0 0 0 0 0 0 0 0 0 0 0 14 157 786 2562 3050 3091 3316 3354 3305 3351 3339 3323 3435 3450 3432 3403 3236 3070 2950
9 1 1 2 2 1 0 1 0 1 0 1 4 2 2 0 0 0 2 2 2 1 3 4 1 0 10 4 1 0 1 1 1 1 2 2 1 2 1 2 3 1 1 2 3 5 5 4 3 0 0 0 0 0 0 0 0 0 0 0 0 0 0 0 0 0 0 0 62 110 737 2618 3090 3171 3214 3264 3211 3266 3248 3267 3306 3370 3297 3249 3166 3076
4 0 2 0 2 10 0 2 1 0 2 1 0 0 1 2 2 4 0 0 0 2 0 1 0 0 0 0 0 0 0 1 2 3 2 1 0 1 0 0 1 0 3 6 5 8 8 6 6 6 1 2 0 0 0 0 0 0 0 0 0 0 0 0 0 0 0 0 4 45 26 780 2834 3023 3132 3197 3276 3290 3189 3246 3301 3291 3297 3294 3346 3228
3 0 1 0 2 3 0 1 4 1 2 23 1 0 3 1 0 1 1 0 1 2 2 0 0 0 1 0 0 0 0 0 1 1 2 1 1 5 7 7 4 6 7 8 9 11 12 11 12 11 10 6 2 0 0 0 0 0 0 0 0 0 0 0 0 0 0 0 0 25 6 70 1467 2929 3028 3243 3208 3195 3291 3270 3277 3190 3161 3175 3272 3180
0 2 1 2 1 1 2 1 5 3 2 1 2 6 1 3 1 0 0 1 0 3 1 4 2 0 0 0 0 0 2 1 4 2 2 4 4 6 8 4 6 11 6 8 12 8 9 12 11 12 10 8 4 0 0 1 0 0 0 0 0 0 0 0 0 0 0 0 0 2 56 4 161 1939 2970 3057 3192 3215 3204 3171 3044 3234 3216 3250 3273 3179
2 1 0 0 0 0 2 3 4 10 0 5 8 5 1 1 1 0 0 2 2 6 3 2 2 0 0 1 5 3 1 3 3 2 2 0 8 26 14 4 5 6 6 6 5 5 14 11 13 11 9 8 6 6 6 4 2 2 0 0 0 0 0 0 0 0 0 0 0 0 18 21 6 438 2460 2952 3071 3044 3108 3124 3174 3250 3252 3079 3217 3212
0 0 1 2 1 1 3 2 18 5 21 18 6 3 5 3 2 1 3 2 4 3 6 0 0 0 2 1 0 0 1 1 0 0 1 1 5 7 7 8 11 6 8 9 7 6 5 11 14 13 14 7 7 8 9 6 4 1 0 0 0 0 0 0 0 0 0 0 0 0 29 80 23 160 1298 2798 3052 3049 3011 3173 3262 3282 3310 3273 3224 3110
1 2 1 0 1 5 0 7 4 7 8 6 2 7 1 0 0 0 1 5 21 1 1 3 2 0 2 6 0 0 0 1 2 1 1 1 1 8 15 10 12 10 7 7 10 8 8 8 11 6 8 9 11 14 16 8 1 0 0 0 0 0 0 0 0 0 0 0 0 0 8 138 126 94 624 2108 2902 2962 3106 3189 3310 3367 3212 3249 3116 3169
0 1 0 2 0 1 8 0 0 0 0 0 5 2 3 1 2 16 2 1 6 7 3 4 5 3 4 2 0 0 2 3 0 0 2 0 1 5 11 13 10 11 11 12 13 13 9 6 4 5 12 12 13 10 12 8 2 2 2 4 4 0 0 0 0 0 0 0 0 0 0 218 203 89 324 1456 2642 2868 3147 3231 3245 3246 3194 3245 3243 3183
0 0 0 0 0 0 0 0 0 0 0 0 4 1 4 3 8 4 2 2 3 2 0 2 4 6 6 1 0 1 2 0 2 1 2 2 5 16 24 15 9 11 9 11 18 18 16 18 14 10 5 4 4 7 12 10 1 1 4 3 9 9 0 0 0 0 0 0 0 0 0 230 283 91 310 1410 2347 3034 3153 3037 2952 3013 3266 3180 3106 3075
1 0 0 0 0 0 0 0 1 0 0 5 5 4 3 0 1 0 1 0 0 2 6 0 7 4 2 2 4 5 9 5 4 1 2 9 13 14 17 20 8 4 3 4 6 15 14 12 11 4 1 0 0 1 7 8 10 4 2 5 6 12 8 0 0 0 0 0 0 0 6 242 447 117 450 1477 2307 2990 3150 3174 3158 3199 3174 3127 2862 2791
0 0 0 0 0 0 0 0 2 2 0 2 3 1 2 1 0 0 0 0 1 7 4 2 7 8 6 6 11 13 7 4 4 1 8 1 4 8 10 10 6 3 4 2 4 2 9 9 10 13 41 32 5 0 7 18 22 9 4 12 11 6 5 2 4 4 0 0 0 0 18 260 439 430 705 1403 2330 2879 3029 3131 3237 3215 3035 2972 2943 2538
1 3 0 0 0 0 1 0 0 0 0 14 1 0 0 0 0 0 0 3 4 6 5 1 6 6 9 12 10 9 8 1 4 2 0 1 2 6 6 10 4 0 0 3 2 6 13 12 10 9 9 10 2 1 4 6 12 5 3 6 16 6 3 2 10 10 2 0 0 0 33 226 744 1080 1216 1204 1941 2722 2846 2937 2945 2940 2939 3064 2704 2447
0 0 0 0 1 5 0 0 0 0 1 12 0 1 2 2 4 2 0 0 5 4 5 3 8 6 4 6 9 12 9 5 10 3 2 0 2 7 10 3 8 2 3 5 6 2 5 9 9 12 16 4 4 1 7 5 1 1 0 9 16 18 13 16 17 10 8 4 0 0 48 441 943 1249 1279 1403 2040 2338 2714 2690 2737 2820 2735 2602 2577 2760
2 1 3 4 0 0 0 0 0 2 1 2 1 3 0 0 2 2 1 0 5 3 6 1 2 1 0 2 4 6 7 10 13 7 3 2 3 3 8 6 5 6 1 4 5 6 5 7 9 12 18 10 8 16 12 16 3 6 17 1 1 21 24 8 19 11 14 9 0 0 81 472 673 1144 1150 1333 1830 2278 2406 2616 2721 2903 3081 2974 2829 2704
0 5 0 0 4 1 1 2 2 3 2 3 3 4 0 5 6 0 0 3 3 2 10 4 6 1 1 15 5 4 6 11 14 14 10 2 3 7 12 6 6 5 4 6 7 5 4 7 12 22 13 13 37 49 8 13 1 8 24 14 2 0 11 27 4 10 22 12 1 6 320 493 700 1052 1252 1205 1874 2323 2458 2487 2646 2860 2816 2592 2412 2244
1 2 0 6 8 2 1 6 1 5 4 2 6 5 0 8 2 9 8 2 3 5 5 16 23 19 18 19 22 8 9 13 15 15 9 2 4 7 11 4 2 3 5 2 8 5 8 8 13 21 19 7 4 33 11 9 8 18 21 21 18 8 4 4 5 8 16 8 0 26 323 526 436 400 1161 1427 1945 2474 2436 2555 2574 2466 2497 2596 2637 2628
0 3 2 1 5 4 1 0 2 4 4 2 0 14 8 0 0 7 5 5 3 3 8 5 19 2 10 40 10 13 7 10 10 15 11 2 4 6 8 7 2 3 9 8 10 12 10 13 16 12 10 8 3 16 17 0 0 1 8 21 20 39 13 9 2 9 15 19 10 35 120 293 759 1075 1470 1603 1888 2312 2522 2611 2478 2637 2734 2611 2520 2733
20 2 4 1 3 1 2 11 8 7 15 6 4 4 2 0 0 0 0 5 7 0 11 5 15 9 6 4 6 8 2 4 6 9 11 6 2 5 6 6 6 4 4 6 5 7 44 83 79 72 51 12 11 8 38 7 10 6 1 0 9 7 12 8 15 20 17 22 24 8 71 59 533 1099 1683 1862 2129 2339 2482 2491 2645 2693 2382 2520 2180 2106
20 1 0 0 2 1 4 1 2 4 10 13 1 0 0 0 0 0 0 0 1 6 5 10 1 15 14 14 10 8 4 4 7 8 12 8 2 2 3 5 6 2 2 1 4 2 6 4 100 137 106 72 15 19 8 26 19 34 14 6 1 1 3 18 12 6 4 2 8 59 4 66 987 1465 1795 2149 2325 2321 2432 2601 2472 2460 2385 2282 2202 1855
10 1 1 4 6 2 2 9 5 12 0 9 2 4 0 1 4 0 0 0 0 5 2 8 3 6 12 13 9 8 8 5 8 8 3 5 6 2 2 3 4 5 1 3 4 10 2 2 60 102 118 118 60 13 13 7 22 10 43 84 20 26 19 2 1 2 5 1 0 57 182 170 1012 1584 1911 2206 2509 2539 2509 2222 2104 2179 2384 2147 2067 1825
0 1 1 2 1 11 4 4 3 11 16 11 0 0 0 0 4 2 3 2 0 3 0 4 2 0 0 2 5 8 8 9 10 10 8 7 3 1 1 0 2 2 0 0 2 2 2 1 1 2 2 63 90 72 12 10 18 19 9 21 41 155 25 19 2 2 0 0 3 89 574 938 1436 1522 1739 2093 2351 2662 2378 2322 2180 2219 2186 2094 1939 1712
Wind_Speed
nan nan nan nan nan nan nan nan nan nan nan nan nan nan nan nan nan nan nan nan nan nan nan nan nan nan nan nan nan nan nan nan nan nan nan nan nan nan nan nan nan 33 36 34 34 31 27 25 23 25 26 26 31 31 32 31 28 25 32 43 45 43 39 38 36 34 34 32 32 31 28 26 25 22 20 21 22 21 21 19 17 15 14 14 11 9
nan nan nan nan nan nan nan nan nan nan nan nan nan nan nan nan nan nan nan nan nan nan nan nan nan nan nan nan nan nan nan nan nan nan nan nan nan nan nan nan nan 32 34 36 36 33 31 27 23 24 24 27 31 29 31 32 30 28 32 41 46 45 41 40 39 38 37 36 35 34 31 28 26 23 22 23 24 23 23 21 18 16 16 15 14 12
nan nan nan nan nan nan nan nan nan nan nan nan nan nan nan nan nan nan nan nan nan nan nan nan nan nan nan nan nan nan nan nan nan nan nan nan nan nan nan nan nan nan 36 40 36 35 33 27 24 25 24 25 30 30 30 33 30 26 32 42 45 46 44 43 42 41 39 38 39 37 33 30 29 26 26 26 27 26 24 22 19 17 17 17 16 12
nan nan nan nan nan nan nan nan nan nan nan nan nan nan nan nan nan nan nan nan nan nan nan nan nan nan nan nan nan nan nan nan nan nan nan nan nan nan nan nan nan nan 37 37 36 35 36 30 28 28 25 25 28 30 31 33 29 26 30 40 44 45 45 44 42 41 41 39 39 38 36 32 31 29 29 29 28 27 25 23 20 18 17 19 18 13
nan nan nan nan nan nan nan nan nan nan 5 nan nan nan nan nan nan nan nan nan nan nan nan nan nan nan nan nan nan nan nan nan nan nan nan nan nan nan nan nan nan nan 35 33 36 37 36 33 30 26 28 28 27 26 28 32 30 27 26 35 41 45 44 44 43 41 41 42 40 39 38 34 32 32 30 28 26 25 24 24 22 20 19 19 19 17
nan nan nan nan nan 3 nan 3 nan nan 1 nan nan nan nan nan nan nan nan nan nan nan nan nan nan nan nan nan nan nan nan nan nan nan nan nan nan nan nan nan nan nan 38 36 35 37 37 34 31 29 28 27 26 24 28 32 34 31 29 31 34 41 43 42 42 41 42 42 41 40 37 33 33 31 29 26 25 26 25 24 25 22 21 20 21 21
10 nan nan nan nan 3 3 1 6 nan 1 nan 4 nan nan nan nan nan nan nan nan nan nan nan nan nan nan nan nan nan nan nan nan nan nan nan nan nan nan nan nan nan 38 39 39 40 39 36 32 30 28 26 25 23 27 36 42 37 33 33 32 36 41 42 42 41 42 41 42 39 37 35 34 33 32 32 32 30 29 28 27 24 22 21 23 23
nan nan nan nan 5 5 4 3 9 3 4 2 nan nan nan nan nan nan nan nan nan nan nan nan nan nan nan nan nan nan nan nan nan nan nan nan nan nan nan nan nan nan nan 40 40 41 40 37 34 29 28 26 27 29 28 34 38 32 27 33 35 37 42 46 46 43 41 40 40 39 38 37 35 34 35 34 34 34 32 29 28 27 24 22 24 24
nan nan nan nan nan 4 1 8 nan nan nan 6 nan nan nan nan nan nan nan nan nan nan nan nan nan nan nan nan nan nan nan nan nan nan nan nan nan nan nan nan nan 47 45 43 43 42 41 38 34 30 28 28 32 34 32 30 33 34 32 33 35 36 40 46 47 46 43 42 41 40 39 38 37 36 37 38 37 35 33 30 29 29 27 25 23 22
11 nan nan nan nan 3 7 nan nan nan 4 6 nan nan nan nan nan nan nan nan nan nan nan nan nan nan nan nan nan nan nan nan nan nan nan nan nan nan nan nan nan nan nan 45 46 44 42 40 35 31 33 35 36 36 32 31 37 37 35 30 28 30 40 47 45 48 47 44 43 40 37 36 36 37 38 38 37 36 33 31 30 30 29 29 26 22
nan nan nan nan 4 nan nan nan nan nan nan nan nan nan nan nan nan nan nan nan nan nan nan nan nan nan nan nan nan nan nan nan nan nan nan nan nan nan nan nan nan nan nan 59 53 48 46 43 39 39 41 36 37 35 33 34 38 39 37 34 28 25 33 43 47 48 47 48 46 41 37 38 37 37 37 38 37 37 35 33 31 30 29 31 30 26
nan nan 11 nan nan nan nan 4 nan nan nan nan nan 4 nan nan nan nan nan nan nan nan nan nan nan nan nan nan nan nan nan nan nan nan nan nan nan nan nan nan nan nan nan nan 68 63 55 51 43 40 35 35 36 38 36 35 39 40 39 38 35 30 30 39 44 47 49 49 46 42 39 39 39 37 38 35 35 36 36 35 33 31 30 32 33 30
12 9 nan nan nan nan nan nan 9 nan nan 7 7 4 nan nan nan nan nan nan nan nan nan nan nan nan nan nan nan nan nan nan nan nan nan nan nan nan nan nan nan nan nan nan nan 68 67 66 58 46 47 51 47 38 38 40 39 41 41 38 34 31 29 32 35 40 48 47 42 39 38 38 40 38 36 35 34 37 37 37 35 33 29 31 33 32
12 nan nan nan nan nan 2 2 6 7 5 3 4 3 3 nan nan nan nan nan nan nan nan nan nan nan nan nan nan nan nan nan nan nan nan nan nan nan nan nan nan nan nan nan nan nan 70 68 66 66 56 48 45 39 37 39 42 39 38 36 36 33 29 28 31 34 41 42 36 35 37 38 39 38 35 35 36 37 37 37 37 35 31 30 31 34
7 nan nan nan 9 nan nan nan nan nan nan 5 nan nan 5 6 nan nan nan nan nan nan nan nan nan nan nan nan nan nan nan nan nan nan nan nan nan nan nan nan nan nan nan nan nan nan nan nan 67 66 64 53 46 45 41 36 33 32 29 27 28 30 31 32 31 30 32 37 34 34 38 39 41 40 38 37 37 39 39 40 39 36 32 30 33 35
nan nan nan nan nan nan nan nan nan nan nan nan nan nan nan nan nan nan nan nan nan nan nan nan nan nan nan nan nan nan nan nan nan nan nan nan nan nan nan nan nan nan nan nan nan nan nan nan nan 63 62 59 55 49 42 39 39 37 33 25 21 23 28 30 29 28 31 33 34 33 34 35 39 42 41 39 38 39 42 43 42 40 37 36 37 38
nan nan nan nan nan nan nan nan nan nan nan 5 nan 4 12 nan nan nan nan nan nan nan nan nan nan nan nan nan nan nan nan nan nan nan nan nan nan nan nan nan nan nan nan nan nan nan nan nan nan nan nan 61 58 56 53 45 40 41 40 34 25 24 26 25 25 28 33 34 33 32 33 34 36 36 37 37 34 35 41 42 42 42 40 39 39 40
nan nan nan nan nan nan nan nan nan nan nan nan 4 8 nan nan nan nan nan nan nan nan nan nan nan nan nan nan nan nan nan nan nan nan nan nan nan nan nan nan nan nan nan nan nan nan nan nan nan nan nan nan 59 57 57 53 46 39 38 31 29 33 26 24 27 33 38 40 38 38 36 35 35 36 36 35 34 35 40 40 38 39 39 36 38 40
nan nan nan nan nan nan nan nan nan nan nan nan nan nan nan nan nan nan nan nan nan nan nan nan nan nan nan nan nan nan nan nan nan nan nan nan nan nan nan nan nan nan nan nan nan nan nan nan nan nan nan nan nan nan 57 55 50 46 38 35 31 26 30 31 34 39 43 43 42 39 36 33 33 34 36 36 33 34 33 34 33 33 34 37 39 42
nan nan nan nan nan nan nan nan 4 nan nan nan nan nan nan nan 8 4 nan nan nan nan nan nan nan nan nan nan nan nan nan nan nan nan nan nan nan nan nan nan nan nan nan nan nan nan nan nan nan nan nan nan nan nan nan nan 56 51 47 37 31 26 24 27 31 35 38 36 35 34 33 32 32 32 33 36 33 30 28 28 29 30 30 31 37 41
nan nan nan nan nan nan nan nan 7 9 8 3 2 nan nan nan nan nan nan nan nan nan nan nan nan nan nan nan nan nan nan nan nan nan nan nan nan nan nan nan nan nan nan nan nan nan nan nan nan nan nan nan nan nan nan nan nan 57 53 48 40 29 24 23 24 29 32 32 31 30 30 31 31 30 32 30 28 27 26 28 30 30 28 29 32 37
nan nan nan nan nan nan nan nan nan nan nan 10 10 10 12 10 nan nan nan nan nan nan nan nan nan nan nan nan nan nan nan nan nan nan nan nan nan nan nan nan nan nan nan nan nan nan nan nan nan nan nan nan nan nan nan nan nan nan nan 54 50 45 36 25 20 23 25 30 33 31 29 29 30 29 30 27 26 26 28 27 30 30 28 24 27 27
nan nan nan nan nan nan nan nan nan nan nan nan 11 11 15 11 nan nan nan nan nan nan nan nan nan nan nan nan nan nan nan nan nan nan nan nan nan nan nan nan nan nan nan nan nan nan nan nan nan nan nan nan nan nan nan nan nan nan nan nan nan 49 47 39 29 26 26 28 31 31 28 28 29 29 27 26 27 27 28 28 27 28 27 25 27 24
nan nan nan nan nan nan nan nan nan nan nan nan nan nan nan 13 16 15 14 16 nan nan nan nan nan nan nan nan nan nan nan nan nan nan nan nan nan nan nan nan nan nan nan nan nan nan nan nan nan nan nan nan nan nan nan nan nan nan nan nan nan nan nan 45 38 31 29 27 28 30 30 29 29 27 28 28 29 29 30 31 29 27 24 23 29 27
nan nan nan nan nan nan nan nan nan nan nan nan nan nan nan nan 15 14 nan 15 nan nan nan nan nan nan nan nan nan nan nan nan nan nan nan nan nan nan nan nan nan nan nan nan nan nan nan nan nan nan nan nan nan nan nan nan nan nan nan nan nan nan nan nan 44 38 33 30 27 30 31 29 29 28 28 28 29 30 30 29 28 27 24 25 24 27
nan nan nan nan nan nan nan nan nan nan nan nan nan nan nan nan nan nan nan nan nan nan nan nan nan nan nan nan nan nan nan nan nan nan nan nan nan nan nan nan nan nan nan nan nan nan nan nan nan nan nan nan nan nan nan nan nan nan nan nan nan nan nan nan nan 44 40 34 31 31 30 28 28 27 25 25 26 27 27 27 26 25 27 25 22 24
nan nan nan nan nan nan nan nan nan nan nan nan nan nan nan nan nan nan nan nan nan nan nan nan nan nan nan nan nan nan nan nan nan nan nan nan nan nan nan nan nan nan nan nan nan nan nan nan nan nan nan nan nan nan nan nan nan nan nan nan nan nan nan nan nan nan 46 41 36 36 33 29 28 27 26 27 27 27 26 25 24 24 25 25 23 23
nan nan nan nan nan nan nan nan nan nan nan nan nan nan nan nan nan nan nan nan nan nan nan nan nan nan nan nan nan nan nan nan nan nan nan nan nan nan nan nan nan nan nan nan nan nan nan nan nan nan nan nan nan nan nan nan nan nan nan nan nan nan nan nan nan nan nan 47 43 40 36 32 30 29 28 28 28 27 27 26 25 25 25 26 25 24
nan nan nan nan nan nan nan nan nan nan nan nan nan nan nan nan nan nan nan nan nan nan nan nan nan nan nan nan nan nan nan nan nan nan nan nan nan nan nan nan nan nan nan nan nan nan nan nan nan nan nan nan nan nan nan nan nan nan nan nan nan nan nan nan nan nan nan nan 47 44 40 36 35 35 33 32 31 29 28 27 27 26 27 26 26 26
nan nan nan nan nan nan nan nan nan nan nan nan nan nan nan nan nan nan nan nan nan nan nan nan nan nan nan nan nan nan nan nan nan nan nan nan nan nan nan nan nan nan nan nan nan nan nan nan nan nan nan nan nan nan nan nan nan nan nan nan nan nan nan nan nan nan nan nan 52 50 46 41 40 40 38 36 34 32 32 31 31 30 28 26 26 27
nan nan nan nan nan nan nan nan nan nan nan nan nan nan nan nan nan nan nan nan nan nan nan nan nan nan nan nan nan nan nan nan nan nan nan nan nan nan nan nan nan nan nan nan nan nan nan nan nan nan nan nan nan nan nan nan nan nan nan nan nan nan nan nan nan nan nan nan nan 54 52 49 44 43 41 40 39 37 35 35 37 35 32 30 30 32
nan nan nan nan nan nan nan nan nan nan nan nan nan nan nan nan nan nan nan nan nan nan nan nan nan nan nan nan nan nan nan nan nan nan nan nan nan nan nan nan nan nan nan nan nan nan nan nan nan nan nan nan nan nan nan nan nan nan nan nan nan nan nan nan nan nan nan nan nan nan nan 54 49 46 45 44 41 39 36 37 38 38 38 37 35 36
nan nan nan nan nan nan nan nan nan nan nan nan nan nan nan nan nan nan nan nan nan nan nan nan nan nan nan nan nan nan nan nan nan nan nan nan nan nan nan nan nan nan nan nan nan nan nan nan nan nan nan nan nan nan nan nan nan nan nan nan nan nan nan nan nan nan nan nan nan nan nan nan 55 51 49 48 46 43 40 39 39 39 40 39 39 39
nan nan nan nan nan nan nan nan nan nan nan nan nan nan nan nan nan nan nan nan nan nan nan nan nan nan nan nan nan nan nan nan nan nan nan nan nan nan nan nan nan nan nan nan nan nan nan nan nan nan nan nan nan nan nan nan nan nan nan nan nan nan nan nan nan nan nan nan nan nan nan nan 59 55 53 50 49 48 45 42 41 41 42 43 42 40
nan nan nan nan nan nan nan nan nan nan nan nan nan nan nan nan nan nan nan nan nan nan nan nan nan nan nan nan nan nan nan nan nan nan nan nan nan nan nan nan nan nan nan nan nan nan nan nan nan nan nan nan nan nan nan nan nan nan nan nan nan nan nan nan nan nan nan nan nan nan nan nan nan 59 56 53 52 50 48 46 46 44 44 45 45 43
nan nan nan nan nan nan nan nan nan nan nan nan nan nan nan nan nan nan nan nan nan nan nan nan nan nan nan nan nan nan nan nan nan nan nan nan nan nan nan nan nan nan nan nan nan nan nan nan nan nan nan nan nan nan nan nan nan nan nan nan nan nan nan nan nan nan nan nan nan nan nan nan nan 63 60 58 55 53 51 51 50 49 48 50 50 48
nan nan nan nan nan nan nan nan nan nan nan nan nan nan nan nan nan nan nan nan nan nan nan nan nan nan nan nan nan nan nan nan nan nan nan nan nan nan nan nan nan nan nan nan nan nan nan nan nan nan nan nan nan nan nan nan nan nan nan nan nan nan nan nan nan nan nan nan nan nan nan 63 63 nan 62 60 58 56 55 54 53 52 52 52 52 52
nan nan nan nan nan nan nan nan nan nan nan nan nan nan nan nan nan nan nan nan nan nan nan nan nan nan nan nan nan nan nan nan nan nan nan nan nan nan nan nan nan nan nan nan nan nan nan nan nan nan nan nan nan nan nan nan nan nan nan nan nan nan nan nan nan nan nan nan nan nan nan 64 64 nan 63 62 59 58 58 56 56 53 54 51 54 53
nan nan nan nan nan nan nan nan nan nan nan nan nan nan nan nan nan nan nan nan nan nan nan nan nan nan nan nan nan nan nan nan nan nan nan nan nan nan nan nan nan nan nan nan nan nan nan nan nan nan nan nan nan nan nan nan nan nan nan nan nan nan nan nan nan nan nan nan nan nan nan 67 66 nan 66 63 62 62 59 57 55 55 53 53 54 54
nan nan nan nan nan nan nan nan nan nan nan nan nan nan nan nan nan nan nan nan nan nan nan nan nan nan nan nan nan nan nan nan nan nan nan nan nan nan nan nan nan nan nan nan nan nan nan nan nan nan nan nan nan nan nan nan nan nan nan nan nan nan nan nan nan nan nan nan nan nan nan 71 69 69 68 65 64 64 61 60 59 55 54 53 55 56
nan nan nan nan nan nan nan nan nan nan nan nan nan nan nan nan nan nan nan nan nan nan nan nan nan nan nan nan nan nan nan nan nan nan nan nan nan nan nan nan nan nan nan nan nan nan nan nan nan nan nan nan nan nan nan nan nan nan nan nan nan nan nan nan nan nan nan nan nan nan nan 73 72 70 70 69 68 67 66 63 61 59 55 55 57 55
nan nan nan nan nan nan nan nan nan nan nan nan nan nan nan nan nan nan nan nan nan nan nan nan nan nan nan nan nan nan nan nan nan nan nan nan nan nan nan nan nan nan nan nan nan nan nan nan nan nan nan nan nan nan nan nan nan nan nan nan nan nan nan nan nan nan nan nan nan nan nan 71 73 73 73 71 69 68 66 65 62 61 58 59 59 55
nan nan nan nan nan nan nan nan nan nan nan nan nan nan nan nan nan nan nan nan nan nan nan nan nan nan nan nan nan nan nan nan nan nan nan nan nan nan nan nan nan nan nan nan nan nan nan nan nan nan nan nan nan nan nan nan nan nan nan nan nan nan nan nan nan nan nan nan nan nan nan 71 71 74 74 73 69 67 66 65 63 63 62 60 58 57
nan nan nan nan nan nan nan nan nan nan nan nan nan nan nan nan nan nan nan nan nan nan nan nan nan nan nan nan nan nan nan nan nan nan nan nan nan nan nan nan nan nan nan nan nan nan nan nan nan nan nan nan nan nan nan nan nan nan nan nan nan nan nan nan nan nan nan nan nan nan nan 69 69 71 73 70 67 63 63 62 62 63 65 64 62 61
nan nan nan nan nan nan nan nan nan nan nan nan nan nan nan nan nan nan nan nan nan nan nan nan nan nan nan nan nan nan nan nan nan nan nan nan nan nan nan nan nan nan nan nan nan nan nan nan nan nan nan nan nan nan nan nan nan nan nan nan nan nan nan nan nan nan nan nan nan nan 65 67 70 70 70 69 65 62 59 58 59 61 62 61 59 57
nan nan nan nan nan nan nan nan nan nan nan nan nan nan nan nan nan nan nan nan nan nan nan nan nan nan nan nan nan nan nan nan nan nan nan nan nan nan nan nan nan nan nan nan nan nan nan nan nan nan nan nan nan nan nan nan nan nan nan nan nan nan nan nan nan nan nan nan nan nan 58 62 68 66 67 66 63 59 57 55 55 55 56 55 54 54
nan nan nan nan nan nan nan nan nan nan nan nan nan nan nan nan nan nan nan nan nan nan nan nan nan nan nan nan nan nan nan nan nan nan nan nan nan nan nan nan nan nan nan nan nan nan nan nan nan nan nan nan nan nan nan nan nan nan nan nan nan nan nan nan nan nan nan nan nan nan 55 60 67 66 67 64 62 57 55 54 53 56 57 54 53 59
nan nan nan nan nan nan nan nan nan nan nan nan nan nan nan nan nan nan nan nan nan nan nan nan nan nan nan nan nan nan nan nan nan nan nan nan nan nan nan nan nan nan nan nan nan nan nan nan nan nan nan nan nan nan nan nan nan nan nan nan nan nan nan nan nan nan nan nan nan nan nan nan 59 60 64 64 60 57 56 55 56 59 61 59 63 66
nan nan nan nan nan nan nan nan nan nan nan nan nan nan nan nan nan nan nan nan nan nan nan nan nan nan nan nan nan nan nan nan nan nan nan nan nan nan nan nan nan nan nan nan nan nan nan nan 18 17 16 nan nan nan nan nan nan nan nan nan nan nan nan nan nan nan nan nan nan nan nan nan 50 54 60 62 59 56 55 56 57 55 55 56 58 59
nan nan nan nan nan nan nan nan nan nan nan nan nan nan nan nan nan nan nan nan nan nan nan nan nan nan nan nan nan nan nan nan nan nan nan nan nan nan nan nan nan nan nan nan nan nan nan nan nan 12 12 13 nan nan nan nan nan nan nan nan nan nan nan nan nan nan nan nan nan nan 47 45 47 51 55 57 58 57 56 57 52 51 51 52 49 51
nan nan nan nan nan nan nan nan nan nan nan nan nan nan nan nan nan nan nan nan nan nan nan nan nan nan nan nan nan nan nan nan nan nan nan nan nan nan nan nan nan nan nan nan nan nan nan nan nan nan nan nan nan nan nan nan nan nan nan nan nan 24 nan nan nan nan nan nan nan nan 44 46 47 48 48 52 55 56 56 56 54 55 57 56 49 49
Wind_Direction
nan nan nan nan nan nan nan nan nan nan nan nan nan nan nan nan nan nan nan nan nan nan nan nan nan nan nan nan nan nan nan nan nan nan nan nan nan nan nan nan nan 218 216 215 227 230 234 237 242 243 237 237 240 235 241 241 236 233 222 211 209 204 192 190 194 193 198 201 204 206 207 207 206 205 211 212 213 217 221 232 240 246 249 255 244 227
nan nan nan nan nan nan nan nan nan nan nan nan nan nan nan nan nan nan nan nan nan nan nan nan nan nan nan nan nan nan nan nan nan nan nan nan nan nan nan nan nan 219 219 221 226 229 228 228 239 240 234 236 244 242 243 243 240 235 223 210 209 206 195 192 195 196 197 199 203 209 209 206 203 205 210 214 216 218 222 230 237 243 251 257 248 230
nan nan nan nan nan nan nan nan nan nan nan nan nan nan nan nan nan nan nan nan nan nan nan nan nan nan nan nan nan nan nan nan nan nan nan nan nan nan nan nan nan nan 215 221 222 227 227 227 232 235 232 234 243 245 243 244 245 238 218 209 209 207 198 194 197 197 197 199 204 209 210 205 201 202 207 211 218 222 224 230 236 243 252 261 253 237
nan nan nan nan nan nan nan nan nan nan nan nan nan nan nan nan nan nan nan nan nan nan nan nan nan nan nan nan nan nan nan nan nan nan nan nan nan nan nan nan nan nan 213 213 218 225 230 225 226 230 231 235 240 243 239 238 242 235 218 212 212 210 202 198 198 197 198 199 203 206 208 205 199 205 210 211 219 224 228 233 237 243 251 264 265 255
nan nan nan nan nan nan nan nan nan nan 354 nan nan nan nan nan nan nan nan nan nan nan nan nan nan nan nan nan nan nan nan nan nan nan nan nan nan nan nan nan nan nan 215 209 212 222 228 226 227 229 233 239 244 247 249 243 236 227 225 218 215 213 208 203 203 204 202 204 204 207 207 204 201 205 212 215 219 227 233 235 241 243 250 260 265 267
nan nan nan nan nan 349 nan 6 nan nan 37 nan nan nan nan nan nan nan nan nan nan nan nan nan nan nan nan nan nan nan nan nan nan nan nan nan nan nan nan nan nan nan 208 208 214 219 226 227 226 230 238 243 246 250 249 249 241 233 229 225 221 217 213 208 210 211 210 208 208 210 209 207 205 208 215 218 222 228 232 235 239 242 245 253 258 261
258 nan nan nan nan 334 339 196 246 nan 47 nan 274 nan nan nan nan nan nan nan nan nan nan nan nan nan nan nan nan nan nan nan nan nan nan nan nan nan nan nan nan nan 207 205 211 219 224 228 226 230 237 243 247 251 248 243 239 227 224 230 227 222 218 217 219 220 216 214 212 210 206 206 207 208 211 216 220 222 226 230 238 240 240 245 252 255
nan nan nan nan 307 352 324 343 280 207 147 307 nan nan nan nan nan nan nan nan nan nan nan nan nan nan nan nan nan nan nan nan nan nan nan nan nan nan nan nan nan nan nan 205 207 217 222 226 226 229 236 240 241 246 250 244 238 242 240 241 236 223 217 219 224 226 224 221 218 214 207 203 204 207 211 218 221 224 226 231 239 242 242 242 247 253
nan nan nan nan nan 284 311 247 nan nan nan 218 nan nan nan nan nan nan nan nan nan nan nan nan nan nan nan nan nan nan nan nan nan nan nan nan nan nan nan nan nan 204 206 205 209 212 220 224 222 222 228 234 236 237 242 243 240 237 238 240 239 235 226 221 225 229 230 225 222 218 211 203 203 207 210 218 223 226 228 231 237 241 246 246 247 253
306 nan nan nan nan 287 248 nan nan nan 69 273 nan nan nan nan nan nan nan nan nan nan nan nan nan nan nan nan nan nan nan nan nan nan nan nan nan nan nan nan nan nan nan 205 209 210 218 220 218 220 223 227 231 236 238 239 237 237 240 240 234 230 227 224 226 229 232 231 225 219 214 206 204 208 211 216 224 227 229 232 237 241 244 249 247 246
nan nan nan nan 224 nan nan nan nan nan nan nan nan nan nan nan nan nan nan nan nan nan nan nan nan nan nan nan nan nan nan nan nan nan nan nan nan nan nan nan nan nan nan 206 210 209 212 219 215 215 215 214 228 233 237 243 244 245 244 251 249 239 229 225 228 231 231 232 228 219 214 209 206 209 213 218 225 229 232 231 235 237 241 248 251 250
nan nan 354 nan nan nan nan 53 nan nan nan nan nan 72 nan nan nan nan nan nan nan nan nan nan nan nan nan nan nan nan nan nan nan nan nan nan nan nan nan nan nan nan nan nan 212 212 212 217 214 213 212 213 220 228 236 241 243 245 244 242 248 252 247 234 233 234 233 236 234 222 215 212 209 208 211 218 225 230 234 234 235 236 237 247 253 256
336 311 nan nan nan nan nan nan 345 nan nan 48 71 73 nan nan nan nan nan nan nan nan nan nan nan nan nan nan nan nan nan nan nan nan nan nan nan nan nan nan nan nan nan nan nan 212 212 215 215 214 214 214 216 217 230 239 237 241 245 244 241 249 249 244 245 242 238 241 241 227 217 215 214 210 209 214 221 228 232 236 239 240 238 246 256 262
312 nan nan nan nan nan 128 87 316 359 336 65 71 126 144 nan nan nan nan nan nan nan nan nan nan nan nan nan nan nan nan nan nan nan nan nan nan nan nan nan nan nan nan nan nan nan 212 213 216 219 219 215 221 222 222 228 235 240 242 246 242 243 253 257 259 252 239 238 237 223 215 215 215 213 211 212 220 228 232 236 241 243 240 246 255 261
327 nan nan nan 294 nan nan nan nan nan nan 179 nan nan 174 164 nan nan nan nan nan nan nan nan nan nan nan nan nan nan nan nan nan nan nan nan nan nan nan nan nan nan nan nan nan nan nan nan 216 218 218 216 214 217 217 225 233 235 240 247 251 250 254 257 258 250 233 227 224 212 209 212 213 212 213 216 219 226 233 235 239 242 240 239 247 254
nan nan nan nan nan nan nan nan nan nan nan nan nan nan nan nan nan nan nan nan nan nan nan nan nan nan nan nan nan nan nan nan nan nan nan nan nan nan nan nan nan nan nan nan nan nan nan nan nan 218 216 213 214 216 219 220 223 226 235 245 246 247 254 256 254 241 225 217 214 209 207 210 212 213 213 216 220 225 232 236 237 239 237 233 238 246
nan nan nan nan nan nan nan nan nan nan nan 209 nan 198 210 nan nan nan nan nan nan nan nan nan nan nan nan nan nan nan nan nan nan nan nan nan nan nan nan nan nan nan nan nan nan nan nan nan nan nan nan 218 217 217 219 222 227 231 226 217 226 242 244 255 259 240 220 209 208 208 209 211 211 210 211 214 220 226 234 237 235 235 237 235 235 241
nan nan nan nan nan nan nan nan nan nan nan nan 123 225 nan nan nan nan nan nan nan nan nan nan nan nan nan nan nan nan nan nan nan nan nan nan nan nan nan nan nan nan nan nan nan nan nan nan nan nan nan nan 220 217 215 216 222 229 229 236 219 202 214 229 235 229 217 212 209 209 208 208 207 207 211 213 219 225 232 236 233 233 237 240 239 241
nan nan nan nan nan nan nan nan nan nan nan nan nan nan nan nan nan nan nan nan nan nan nan nan nan nan nan nan nan nan nan nan nan nan nan nan nan nan nan nan nan nan nan nan nan nan nan nan nan nan nan nan nan nan 214 214 214 218 231 232 231 216 194 192 209 213 213 210 208 206 204 200 201 205 212 216 217 221 225 233 235 238 240 238 238 240
nan nan nan nan nan nan nan nan 101 nan nan nan nan nan nan nan 176 188 nan nan nan nan nan nan nan nan nan nan nan nan nan nan nan nan nan nan nan nan nan nan nan nan nan nan nan nan nan nan nan nan nan nan nan nan nan nan 218 217 217 226 229 219 217 207 193 203 207 209 210 209 207 203 201 207 213 217 217 217 217 229 235 238 240 236 236 237
nan nan nan nan nan nan nan nan 158 158 152 146 102 nan nan nan nan nan nan nan nan nan nan nan nan nan nan nan nan nan nan nan nan nan nan nan nan nan nan nan nan nan nan nan nan nan nan nan nan nan nan nan nan nan nan nan nan 221 221 219 221 226 228 225 209 202 206 211 216 217 212 204 202 205 213 216 216 214 215 221 228 229 231 230 231 235
nan nan nan nan nan nan nan nan nan nan nan 153 157 175 167 157 nan nan nan nan nan nan nan nan nan nan nan nan nan nan nan nan nan nan nan nan nan nan nan nan nan nan nan nan nan nan nan nan nan nan nan nan nan nan nan nan nan nan nan 225 224 223 231 244 236 223 217 220 219 215 208 202 201 203 209 215 216 217 219 221 226 229 229 224 230 235
nan nan nan nan nan nan nan nan nan nan nan nan 163 170 160 158 nan nan nan nan nan nan nan nan nan nan nan nan nan nan nan nan nan nan nan nan nan nan nan nan nan nan nan nan nan nan nan nan nan nan nan nan nan nan nan nan nan nan nan nan nan 231 230 231 236 233 230 227 221 214 208 204 205 209 213 216 220 222 222 222 225 229 228 227 229 232
nan nan nan nan nan nan nan nan nan nan nan nan nan nan nan 164 161 156 165 171 nan nan nan nan nan nan nan nan nan nan nan nan nan nan nan nan nan nan nan nan nan nan nan nan nan nan nan nan nan nan nan nan nan nan nan nan nan nan nan nan nan nan nan 230 229 232 236 234 228 222 218 214 213 215 220 224 227 227 228 227 225 225 220 219 227 231
nan nan nan nan nan nan nan nan nan nan nan nan nan nan nan nan 154 155 nan 158 nan nan nan nan nan nan nan nan nan nan nan nan nan nan nan nan nan nan nan nan nan nan nan nan nan nan nan nan nan nan nan nan nan nan nan nan nan nan nan nan nan nan nan nan 229 229 231 233 231 228 224 222 221 222 226 230 231 230 228 230 228 224 219 219 224 233
nan nan nan nan nan nan nan nan nan nan nan nan nan nan nan nan nan nan nan nan nan nan nan nan nan nan nan nan nan nan nan nan nan nan nan nan nan nan nan nan nan nan nan nan nan nan nan nan nan nan nan nan nan nan nan nan nan nan nan nan nan nan nan nan nan 225 226 229 229 228 226 222 223 225 228 230 231 231 230 229 229 228 225 222 224 230
nan nan nan nan nan nan nan nan nan nan nan nan nan nan nan nan nan nan nan nan nan nan nan nan nan nan nan nan nan nan nan nan nan nan nan nan nan nan nan nan nan nan nan nan nan nan nan nan nan nan nan nan nan nan nan nan nan nan nan nan nan nan nan nan nan nan 224 224 226 227 226 223 221 222 224 226 229 231 233 233 234 233 233 231 227 225
nan nan nan nan nan nan nan nan nan nan nan nan nan nan nan nan nan nan nan nan nan nan nan nan nan nan nan nan nan nan nan nan nan nan nan nan nan nan nan nan nan nan nan nan nan nan nan nan nan nan nan nan nan nan nan nan nan nan nan nan nan nan nan nan nan nan nan 224 224 225 224 221 219 217 217 221 226 232 235 236 239 240 237 235 231 225
nan nan nan nan nan nan nan nan nan nan nan nan nan nan nan nan nan nan nan nan nan nan nan nan nan nan nan nan nan nan nan nan nan nan nan nan nan nan nan nan nan nan nan nan nan nan nan nan nan nan nan nan nan nan nan nan nan nan nan nan nan nan nan nan nan nan nan nan 224 222 218 216 216 216 217 220 225 231 236 238 240 240 239 237 235 230
nan nan nan nan nan nan nan nan nan nan nan nan nan nan nan nan nan nan nan nan nan nan nan nan nan nan nan nan nan nan nan nan nan nan nan nan nan nan nan nan nan nan nan nan nan nan nan nan nan nan nan nan nan nan nan nan nan nan nan nan nan nan nan nan nan nan nan nan 227 224 217 214 216 218 219 221 225 229 234 238 239 237 236 238 242 242
nan nan nan nan nan nan nan nan nan nan nan nan nan nan nan nan nan nan nan nan nan nan nan nan nan nan nan nan nan nan nan nan nan nan nan nan nan nan nan nan nan nan nan nan nan nan nan nan nan nan nan nan nan nan nan nan nan nan nan nan nan nan nan nan nan nan nan nan nan 228 224 218 219 221 222 225 227 229 231 235 235 235 235 237 243 247
nan nan nan nan nan nan nan nan nan nan nan nan nan nan nan nan nan nan nan nan nan nan nan nan nan nan nan nan nan nan nan nan nan nan nan nan nan nan nan nan nan nan nan nan nan nan nan nan nan nan nan nan nan nan nan nan nan nan nan nan nan nan nan nan nan nan nan nan nan nan nan 224 221 225 226 227 230 232 232 233 234 234 234 237 241 245
nan nan nan nan nan nan nan nan nan nan nan nan nan nan nan nan nan nan nan nan nan nan nan nan nan nan nan nan nan nan nan nan nan nan nan nan nan nan nan nan nan nan nan nan nan nan nan nan nan nan nan nan nan nan nan nan nan nan nan nan nan nan nan nan nan nan nan nan nan nan nan nan 225 225 228 231 233 234 233 235 236 235 235 238 241 244
nan nan nan nan nan nan nan nan nan nan nan nan nan nan nan nan nan nan nan nan nan nan nan nan nan nan nan nan nan nan nan nan nan nan nan nan nan nan nan nan nan nan nan nan nan nan nan nan nan nan nan nan nan nan nan nan nan nan nan nan nan nan nan nan nan nan nan nan nan nan nan nan 228 225 227 231 234 237 236 235 236 237 237 238 242 245
nan nan nan nan nan nan nan nan nan nan nan nan nan nan nan nan nan nan nan nan nan nan nan nan nan nan nan nan nan nan nan nan nan nan nan nan nan nan nan nan nan nan nan nan nan nan nan nan nan nan nan nan nan nan nan nan nan nan nan nan nan nan nan nan nan nan nan nan nan nan nan nan nan 228 227 230 233 236 238 238 237 238 239 241 243 247
nan nan nan nan nan nan nan nan nan nan nan nan nan nan nan nan nan nan nan nan nan nan nan nan nan nan nan nan nan nan nan nan nan nan nan nan nan nan nan nan nan nan nan nan nan nan nan nan nan nan nan nan nan nan nan nan nan nan nan nan nan nan nan nan nan nan nan nan nan nan nan nan nan 230 229 230 233 235 238 239 239 239 240 242 244 246
nan nan nan nan nan nan nan nan nan nan nan nan nan nan nan nan nan nan nan nan nan nan nan nan nan nan nan nan nan nan nan nan nan nan nan nan nan nan nan nan nan nan nan nan nan nan nan nan nan nan nan nan nan nan nan nan nan nan nan nan nan nan nan nan nan nan nan nan nan nan nan 229 230 nan 230 231 232 234 236 238 240 239 239 243 245 248
nan nan nan nan nan nan nan nan nan nan nan nan nan nan nan nan nan nan nan nan nan nan nan nan nan nan nan nan nan nan nan nan nan nan nan nan nan nan nan nan nan nan nan nan nan nan nan nan nan nan nan nan nan nan nan nan nan nan nan nan nan nan nan nan nan nan nan nan nan nan nan 229 230 nan 230 231 233 233 234 236 237 239 239 242 245 247
nan nan nan nan nan nan nan nan nan nan nan nan nan nan nan nan nan nan nan nan nan nan nan nan nan nan nan nan nan nan nan nan nan nan nan nan nan nan nan nan nan nan nan nan nan nan nan nan nan nan nan nan nan nan nan nan nan nan nan nan nan nan nan nan nan nan nan nan nan nan nan 229 229 nan 229 230 233 234 234 235 236 237 238 240 243 246
nan nan nan nan nan nan nan nan nan nan nan nan nan nan nan nan nan nan nan nan nan nan nan nan nan nan nan nan nan nan nan nan nan nan nan nan nan nan nan nan nan nan nan nan nan nan nan nan nan nan nan nan nan nan nan nan nan nan nan nan nan nan nan nan nan nan nan nan nan nan nan 228 228 229 229 229 230 233 233 234 235 237 238 240 241 243
nan nan nan nan nan nan nan nan nan nan nan nan nan nan nan nan nan nan nan nan nan nan nan nan nan nan nan nan nan nan nan nan nan nan nan nan nan nan nan nan nan nan nan nan nan nan nan nan nan nan nan nan nan nan nan nan nan nan nan nan nan nan nan nan nan nan nan nan nan nan nan 230 228 229 229 228 228 230 232 232 234 237 239 241 241 242
nan nan nan nan nan nan nan nan nan nan nan nan nan nan nan nan nan nan nan nan nan nan nan nan nan nan nan nan nan nan nan nan nan nan nan nan nan nan nan nan nan nan nan nan nan nan nan nan nan nan nan nan nan nan nan nan nan nan nan nan nan nan nan nan nan nan nan nan nan nan nan 231 231 230 229 228 227 229 231 232 233 235 238 239 241 243
nan nan nan nan nan nan nan nan nan nan nan nan nan nan nan nan nan nan nan nan nan nan nan nan nan nan nan nan nan nan nan nan nan nan nan nan nan nan nan nan nan nan nan nan nan nan nan nan nan nan nan nan nan nan nan nan nan nan nan nan nan nan nan nan nan nan nan nan nan nan nan 231 233 232 230 229 228 228 230 231 232 234 234 237 240 242
nan nan nan nan nan nan nan nan nan nan nan nan nan nan nan nan nan nan nan nan nan nan nan nan nan nan nan nan nan nan nan nan nan nan nan nan nan nan nan nan nan nan nan nan nan nan nan nan nan nan nan nan nan nan nan nan nan nan nan nan nan nan nan nan nan nan nan nan nan nan nan 230 233 233 233 234 232 230 230 232 233 233 233 234 236 239
nan nan nan nan nan nan nan nan nan nan nan nan nan nan nan nan nan nan nan nan nan nan nan nan nan nan nan nan nan nan nan nan nan nan nan nan nan nan nan nan nan nan nan nan nan nan nan nan nan nan nan nan nan nan nan nan nan nan nan nan nan nan nan nan nan nan nan nan nan nan 227 230 232 232 234 235 235 234 232 232 233 232 233 234 236 238
nan nan nan nan nan nan nan nan nan nan nan nan nan nan nan nan nan nan nan nan nan nan nan nan nan nan nan nan nan nan nan nan nan nan nan nan nan nan nan nan nan nan nan nan nan nan nan nan nan nan nan nan nan nan nan nan nan nan nan nan nan nan nan nan nan nan nan nan nan nan 227 231 232 231 233 235 235 235 236 236 234 233 234 234 234 235
nan nan nan nan nan nan nan nan nan nan nan nan nan nan nan nan nan nan nan nan nan nan nan nan nan nan nan nan nan nan nan nan nan nan nan nan nan nan nan nan nan nan nan nan nan nan nan nan nan nan nan nan nan nan nan nan nan nan nan nan nan nan nan nan nan nan nan nan nan nan 225 231 231 231 232 234 234 234 235 235 235 233 230 231 233 233
nan nan nan nan nan nan nan nan nan nan nan nan nan nan nan nan nan nan nan nan nan nan nan nan nan nan nan nan nan nan nan nan nan nan nan nan nan nan nan nan nan nan nan nan nan nan nan nan nan nan nan nan nan nan nan nan nan nan nan nan nan nan nan nan nan nan nan nan nan nan nan nan 232 232 231 233 233 234 235 235 235 236 235 236 236 237
nan nan nan nan nan nan nan nan nan nan nan nan nan nan nan nan nan nan nan nan nan nan nan nan nan nan nan nan nan nan nan nan nan nan nan nan nan nan nan nan nan nan nan nan nan nan nan nan 7 31 29 nan nan nan nan nan nan nan nan nan nan nan nan nan nan nan nan nan nan nan nan nan 229 229 230 232 232 233 236 239 239 241 240 241 243 244
nan nan nan nan nan nan nan nan nan nan nan nan nan nan nan nan nan nan nan nan nan nan nan nan nan nan nan nan nan nan nan nan nan nan nan nan nan nan nan nan nan nan nan nan nan nan nan nan nan 21 32 2 nan nan nan nan nan nan nan nan nan nan nan nan nan nan nan nan nan nan 214 216 222 226 228 231 231 233 234 235 238 238 239 241 243 252
nan nan nan nan nan nan nan nan nan nan nan nan nan nan nan nan nan nan nan nan nan nan nan nan nan nan nan nan nan nan nan nan nan nan nan nan nan nan nan nan nan nan nan nan nan nan nan nan nan nan nan nan nan nan nan nan nan nan nan nan nan 177 nan nan nan nan nan nan nan nan 204 206 214 221 225 228 229 230 233 234 234 233 234 233 245 246